This demonstration page uses our WeatherBlox Daily Observations layout. Learn more.

Left ArrowRight Arrow

Hourly Observations for February 26, 2015

Temp ( °F °C ) Dew Point ( °F °C ) Humidity (%) Winds ( mph kmh ) Pressure ( in mb ) Visibility ( mi km ) Precip ( " mm )
12:53 am 00:53 Clear 55 12.8 33 0.6 44 44 NE 6 9 30.09 1019 10 16 0.00 0.00
1:53 am 01:53 Clear 56 13.3 32 0 40 40 NW 5 7 30.09 1019 10 16 0.00 0.00
2:53 am 02:53 Clear 55 12.8 32 0 42 42 WNW 7 11 30.07 1018 10 16 0.00 0.00
3:53 am 03:53 Clear 55 12.8 33 0.6 44 44 NW 6 9 30.07 1018 10 16 0.00 0.00
4:53 am 04:53 Clear 54 12.2 33 0.6 45 45 Calm 30.06 1018 10 16 0.00 0.00
5:53 am 05:53 Clear 54 12.2 34 1.1 47 47 NW 6 9 30.08 1019 10 16 0.00 0.00
6:53 am 06:53 Sunny 53 11.7 34 1.1 48 48 NW 8 13 30.08 1019 10 16 0.00 0.00
7:53 am 07:53 Sunny 56 13.3 36 2.2 47 47 NW 6 9 30.09 1019 10 16 0.00 0.00
8:53 am 08:53 Sunny 62 16.7 35 1.7 37 37 N 15 24 30.10 1019 10 16 0.00 0.00
9:53 am 09:53 Sunny 65 18.3 36 2.2 34 34 NNE 14 22 30.09 1019 10 16 0.00 0.00
10:53 am 10:53 Sunny 67 19.4 36 2.2 32 32 N 15 24 30.07 1018 10 16 0.00 0.00
11:53 am 11:53 Sunny 69 20.6 38 3.3 32 32 NNE 17 28 30.04 1017 10 16 0.00 0.00
12:53 pm 12:53 Sunny 70 21.1 37 2.8 30 30 NNE 14 22 29.99 1016 10 16 0.00 0.00
1:53 pm 13:53 Sunny 71 21.7 38 3.3 30 30 ENE 10 17 29.95 1014 10 16 0.00 0.00
2:53 pm 14:53 Sunny 72 22.2 37 2.8 28 28 N 9 15 29.93 1013 10 16 0.00 0.00
3:53 pm 15:53 Sunny 72 22.2 35 1.7 26 26 W 3 6 29.91 1013 10 16 0.00 0.00
4:53 pm 16:53 Mostly Cloudy 71 21.7 38 3.3 30 30 Calm 29.90 1012 10 16 0.00 0.00
5:53 pm 17:53 Mostly Cloudy 69 20.6 38 3.3 32 32 WNW 6 9 29.88 1012 10 16 0.00 0.00
6:53 pm 18:53 Mostly Cloudy 66 18.9 40 4.4 39 39 NW 8 13 29.88 1012 10 16 0.00 0.00
7:53 pm 19:53 Mostly Cloudy 64 17.8 41 5 43 43 NW 8 13 29.88 1012 10 16 0.00 0.00
8:53 pm 20:53 Cloudy 63 17.2 41 5 45 45 NW 7 11 29.87 1011 10 16 0.00 0.00
9:53 pm 21:53 Clear 61 16.1 41 5 48 48 NW 10 17 29.88 1012 10 16 0.00 0.00
10:53 pm 22:53 Clear 60 15.6 41 5 50 50 N 6 9 29.88 1012 10 16 0.00 0.00
11:53 pm 23:53 Mostly Clear 58 14.4 41 5 53 53 WSW 3 6 29.86 1011 10 16 0.00 0.00

Powered by AerisWeather